www.pogodaiklimat.ru

Погода и климат >> Архив погоды >> Эквадор >> San Cristobal Aeropuerto


ПОГОДА в San Cristobal Aeropuerto

  • Прогноз погоды в San Cristobal Aeropuerto
  • Монитор погоды в San Cristobal Aeropuerto
  • Климат города

АРХИВ ПОГОДЫ в San Cristobal Aeropuerto

Время (UTC), дата Ветер
(напр.,м/с)
 
Видим.   Явления Облачность Т
(С)
Тd
(С)
f
(%)
Тe
(С)
Тes
(С)
Комфортность P
(гПа)
Po
(гПа)
Тmin
(С)
Tmax
(С)
R
(мм)
R24
(мм)
S
(см)
12 12.12 Ю 7 15 км осадки на расстоянии {дождь, туман} 9/9 300 м
[Sc]
+22.8 +22.1 96 +31 +31 очень
душно
1010.7 1010.4 +22.5 2
15 12.12 Ю 9 8000 м дождь {туман} 10/10 200 м
[Sc]
+23.8 +22.4 92 +31 +31 очень
душно
1011.8 1011.5
18 12.12 Ю 12 4000 м осадки на расстоянии {дождь, морось} 10/10 300 м
[Sc]
+25.0 +22.8 88 +33 +33 очень
душно
1010.4 1010.1 2
21 12.12 Ю 10 15 км осадки на расстоянии {дождь, морось} 10/10 300 м
[Cu Sc]
+25.4 +22.3 83 +33 +33 очень
душно
1008.8 1008.5 +26.0
00 13.12 Ю 10 20 км мгла {дождь, туман} 10/10 600 м
[Sc]
+23.6 +22.3 92 +31 +31 очень
душно
1009.8 1009.5 +26.0 0.0
12 13.12 Ю 8 15 км осадки на расстоянии {туман} 10/10 200 м
[Sc]
+22.6 +21.4 93 +30 +30 очень
душно
1010.8 1010.5 +22.4 2
15 13.12 Ю 10 20 км мгла {туман} 9/5 300 м
[Sc Ac trans]
+26.2 +22.3 79 +34 +34 очень
душно
1012.2 1011.9
18 13.12 Ю 10 20 км мгла {туман} 6/3 300 м
[Cu hum Ac trans]
+26.6 +22.1 76 +34 +35 очень
душно
1011.2 1010.9
21 13.12 Ю 12 20 км мгла {туман} 8/4 300 м
[Cu hum Ac und]
+25.8 +21.8 79 +33 +33 очень
душно
1009.0 1008.7 +27.1
12 14.12 Ю 10 20 км мгла {дождь, туман} 10/10 200 м
[Sc]
+23.3 +21.4 89 +31 +31 очень
душно
1010.3 1010.0 +22.5 0.6
15 14.12 Ю 9 20 км мгла {туман} 9/9 300 м
[Sc]
+24.5 +21.8 85 +31 +32 очень
душно
1012.0 1011.7
18 14.12 Ю 10 20 км мгла {туман} 10/10 300 м
[Cu Sc]
+25.8 +21.8 79 +33 +33 очень
душно
1011.4 1011.1
21 14.12 Ю 8 20 км мгла {туман} 8/3 300 м
[Cu hum Ac trans]
+27.0 +22.1 75 +35 +36 очень
душно
1009.0 1008.7 +27.6
12 15.12 Ю 8 15 км мгла {дождь, туман} 10/10 200 м
[Sc]
+22.4 +21.5 95 +30 +30 очень
душно
1008.8 1009.5 +22.4 0.3
18 15.12 Ю 14 30 км {дождь, морось} 8/4 300 м
[Cu med, cong Ac trans]
+27.3 +22.4 75 +36 +36 очень
душно
1009.0 1008.7 1
21 15.12 Ю 12 30 км в посл. час дождь {морось} 9/4 300 м
[Cu med, cong Ac trans]
+25.2 +23.0 88 +34 +34 очень
душно
1007.0 1006.7 +28.2
12 16.12 Ю 12 20 км мгла {туман} 10/10 300 м
[Sc]
+24.2 +22.2 89 +31 +31 очень
душно
1009.2 1008.9 +24.0 1
15 16.12 Ю 15 20 км мгла {дождь, морось} 10/10 300 м
[Sc]
+26.3 +22.5 80 +35 +35 очень
душно
1011.2 1010.9
18 16.12 Ю 14 20 км мгла {дождь, морось} 10/6 200 м
[Cu hum Ac trans]
+26.2 +23.0 83 +35 +35 очень
душно
1010.2 1009.9 0.1
21 16.12 Ю 13 20 км мгла {дождь, морось} 10/4 300 м
[Cu hum Ac und]
+26.2 +22.6 81 +35 +35 очень
душно
1007.5 1007.2 +27.0
00 17.12 Ю 13 20 км мгла {дождь, морось} 9/4 300 м
[Sc diur, vesp Ac trans]
+25.0 +22.5 86 +33 +33 очень
душно
1008.4 1008.1 +27.0 0.1
12 17.12 Ю 12 20 км мгла {дождь, туман} 10/5 300 м
[Cu med, cong Cs]
+23.9 +22.3 91 +31 +31 очень
душно
1009.6 1009.3 +23.9 0.5
18 17.12 Ю 13 20 км осадки на расстоянии {туман} 9/8 200 м
[Sc Cs]
+27.2 +22.7 76 +36 +36 очень
душно
1010.6 1010.3
21 17.12 Ю 13 20 км мгла {морось, туман} 10/3 300 м
[Cu hum Ac und Cs]
+27.5 +23.2 77 +37 +37 очень
душно
1008.0 1007.7 +28.6
15 18.12 Ю 10 20 км мгла {туман} 9/5 200 м
[Cu hum Ac trans]
+25.5 +22.6 84 +34 +34 очень
душно
1011.0 1010.7
18 18.12 Ю 12 20 км мгла {туман} 8/4 300 м
[Cu hum Ac trans]
+27.3 +22.6 76 +36 +36 очень
душно
1008.6 1008.3
21 18.12 Ю 13 20 км мгла {туман} 6/4 300 м
[Cu hum Ac trans]
+27.6 +22.6 74 +36 +36 очень
душно
1007.3 1007.0 +28.5

 

Местоположение метеостанции San Cristobal Aeropuerto (Эквадор): широта -0.90 долгота -89.62 высота над уровнем моря 18 м.

В архиве по умолчанию представлена погода в San Cristobal Aeropuerto за последнюю неделю. Архивные данные за месяц целиком и за предыдущие месяцы, начиная с января 2011 года, Вы можете получить, выбрав интересующий диапазон дат из раскрывающегося списка и нажав кнопку "Ввод!".


*Определитесь, кто Вы:
робот инопланетянин человек

Внимание! Время в таблицах - всемирное. Для получения местного времени необходимо прибавить поправку, которая в San Cristobal Aeropuerto равна -5 ч.

Смотрите также архив погоды в соседних городах и на ближайших метеорологических станциях:

Погода в San Cristobal (Эквадор) (2 км)
Погода в Seymour (Эквадор) (87 км)
Погода в Puerto Villamil (Эквадор) (163 км)
Погода в Salinas (Эквадор) (971 км)
Погода в Manta (Эквадор) (994 км)
Погода в Talara (Перу) (1017 км)
Погода в Portoviejo Aeropuerto (Эквадор) (1018 км)
Погода в Portoviejo (Эквадор) (1022 км)
Погода в Bahia De Caraquez (Эквадор) (1026 км)
Погода в Tumbes (Перу) (1066 км)

Пояснения к столбцам:

Ветер - указаны скорость ветра в м/с - средняя за 10 мин, порывы в срок и между сроками (в фигурных скобках) и направление, откуда дует ветер: С - северный, СВ - северо-восточный, В - восточный, ЮВ - юго-восточный, Ю - южный, ЮЗ - юго-западный, З - западный, СЗ - северо-западный.
Видимость - горизонтальная дальность видимости в метрах или километрах. При видимости от 1 до 10 км при отсутствии осадков обычно наблюдается дымка, при ухудшении видимости до 1 км и менее - туман. В сухую погоду видимость может ухудшаться дымом, пылью или мглою.
Явления - указаны атмосферные явления, наблюдавшиеся в срок или в последний час перед сроком; фигурными скобками обозначены явления, наблюдавшиеся между сроками (за 1-3 часа до срока); квадратными скобками обозначены град или гололедные отложения с указанием их диаметра в мм.
Облачность - указаны через наклонную черту общая и нижняя облачность в баллах и высота нижней границы облаков в метрах; квадратными скобками обозначены формы облаков: Ci - перистые, Cs - перисто-слоистые, Cc - перисто-кучевые, Ac - высококучевые, As - высокослоистые, Sc - слоисто-кучевые, Ns - слоисто-дождевые, Cu - кучевые, Cb - кучево-дождевые. Подробнее классификацию облаков см. в Атласе облаков (PDF).
T - Температура воздуха - температура, измеренная на высоте 2 м над землей.
Td - Температура точки росы - температура, при понижении до которой содержащийся в воздухе водяной пар достигнет насыщения.
f - Относительная влажность воздуха - влажноcть воздуха, измеренная на высоте 2 м над землей.
Te - Эффективная температура - температура, которую ощущает одетый по сезону человек в тени. Характеристика душности погоды. При расчете учитывается влияние влажности воздуха и скорости ветра на теплоощущения человека.
Tes - Эффективная температура на солнце - температура, которую ощущает человек, с поправкой на солнечный нагрев. Характеристика знойности погоды. Зависит от высоты солнца над горизонтом, облачности и скорости ветра. Ночью, в пасмурную погоду, а также при ветре 12 м/с и более поправка равна нулю.
P - Атмосферное давление - приведенное к уровню моря атмосферное давление.
Po - Атмосферное давление - измеренное на уровне метеостанции атмосферное давление.
Tmin - Минимальная температура - минимум температуры воздуха на высоте 2 м над землей.
Tmax - Максимальная температура - максимум температуры воздуха на высоте 2 м над землей.
R - Количество осадков - Количество выпавших осадков за период времени, мм. При наведении курсора мыши на число - период времени, за который выпало указанное количество осадков.
R24 - Количество осадков - Количество выпавших осадков за 24 часа, мм.
S - Снежный покров - Высота снежного покрова, см. При наведении курсора мыши на число - состояние снежного покрова и степень покрытия местности в баллах.